Location: Dodgeville
(42.9600°N, 90.1300°W)
Time: 06:21:34
(UTC-06:00)

Amateur Radio Satellites - All Passes

Search period start: 26 February 2017 05:51
Search period end: 27 February 2017 05:51
Location: Dodgeville, 42.9600°N, 90.1300°W

Satellite Date Start Highest point End Downlink Frequencies (MHz)
Time Altitude Azimuth
KAITUO 1B 26 Feb 06:08:08 06:11:50 51° 99° (E) 06:15:29 145.475/437.950
STRAND 1 26 Feb 06:11:09 06:16:11 58° 72° (ENE) 06:21:15 437.568
XW-2F 26 Feb 06:14:15 06:18:05 75° 102° (ESE) 06:21:51 145.980 - 146.000
BEESAT 3 26 Feb 06:19:11 06:23:05 69° 306° (NW) 06:27:02 437.485
XW-2D 26 Feb 06:19:26 06:23:17 88° 288° (WNW) 06:27:05 145.860 - 145.880
XW-2B 26 Feb 06:24:31 06:28:21 79° 285° (WNW) 06:32:08 145.730 - 145.750
Tancredo 1 26 Feb 06:29:35 06:31:18 14° 131° (SE) 06:32:59 437.200
XW-2C 26 Feb 06:33:15 06:37:03 60° 285° (WNW) 06:40:47 145.795 - 145.815
NUDT-PHONESAT 26 Feb 06:42:01 06:45:43 57° 286° (WNW) 06:49:23 437.300
SO-50 26 Feb 06:48:38 06:53:08 76° 239° (WSW) 06:57:35 436.795
LilacSat-2 26 Feb 06:51:16 06:54:48 35° 289° (WNW) 06:58:18 437.200
SEEDS 26 Feb 06:58:05 07:00:53 17° 92° (E) 07:03:39 437.485
BEESAT 2 26 Feb 06:59:24 07:03:19 63° 306° (NW) 07:07:19 435.950
HO-68 26 Feb 07:10:23 07:17:08 43° 98° (E) 07:23:50 435.675
CUTE-I 26 Feb 07:25:51 07:30:38 33° 294° (WNW) 07:35:24 437.470
DOVE 4 26 Feb 07:26:47 07:30:19 21° 294° (WNW) 07:34:00 437.250
O/OREOS (USA 219) 26 Feb 07:31:11 07:35:24 34° 60° (ENE) 07:39:35 437.305
CUTE 1.7 + AOD 2 26 Feb 07:37:05 07:41:19 73° 102° (ESE) 07:45:30 437.475
XW-2A 26 Feb 07:40:31 07:43:56 56° 285° (WNW) 07:47:19 145.665 - 145.685
ISS 26 Feb 07:40:32 07:43:48 62° 143° (SE) 07:47:04 437.550
KAITUO 1B 26 Feb 07:43:50 07:45:24 12° 297° (WNW) 07:46:58 145.475/437.950
PRISM 26 Feb 07:50:05 07:53:23 24° 67° (ENE) 07:56:42 437.425
STRAND 1 26 Feb 07:52:17 07:55:43 18° 269° (W) 07:59:12 437.568
BEESAT 3 26 Feb 08:00:27 08:01:28 11° 325° (NW) 08:02:27 437.485
Tancredo 1 26 Feb 08:03:55 08:07:10 77° 330° (NNW) 08:10:25 437.200
CUBEBUG 2 26 Feb 08:04:52 08:09:39 66° 101° (E) 08:14:19 437.445
AO-73 26 Feb 08:11:29 08:15:19 26° 94° (E) 08:19:04 145.935
Oscar 11 26 Feb 08:17:04 08:20:39 25° 94° (E) 08:24:13 .
UNISAT 6 26 Feb 08:17:37 08:21:06 22° 65° (ENE) 08:24:40 437.425
TIGRISAT 26 Feb 08:17:46 08:21:08 21° 64° (ENE) 08:24:33 435.000
AAUSAT CUBESAT 2 26 Feb 08:19:00 08:23:07 69° 102° (ESE) 08:27:11 437.432
SEEDS 26 Feb 08:32:50 08:36:45 40° 288° (WNW) 08:40:38 437.485
UWE-3 26 Feb 08:40:19 08:45:01 85° 287° (WNW) 08:49:38 435.000/436.395/437.385
BEESAT 2 26 Feb 08:41:17 08:41:56 10° 326° (NW) 08:42:33 435.950
FO-29 26 Feb 08:54:17 09:00:50 38° 63° (ENE) 09:07:50 435.910
YUBILEINY 26 Feb 08:55:11 09:02:04 27° 81° (E) 09:08:56 435.215
HO-68 26 Feb 08:58:16 09:04:47 40° 297° (WNW) 09:11:17 435.675
ZACube-1 26 Feb 08:59:11 09:03:46 89° 293° (WNW) 09:08:16 437.345
O/OREOS (USA 219) 26 Feb 09:10:53 09:14:38 25° 257° (WSW) 09:18:22 437.305
CUTE 1.7 + AOD 2 26 Feb 09:15:12 09:16:33 11° 299° (WNW) 09:17:52 437.475
ISS 26 Feb 09:17:35 09:20:28 27° 341° (NNW) 09:23:21 437.550
PRISM 26 Feb 09:25:03 09:28:34 28° 263° (W) 09:32:06 437.425
QB50P2 26 Feb 09:27:52 09:29:16 11° 61° (ENE) 09:30:40 145.880/145.840
Tancredo 1 26 Feb 09:41:15 09:43:50 21° 346° (NNW) 09:46:26 437.200
DELFI C3 26 Feb 09:42:48 09:46:44 72° 102° (ESE) 09:50:38 145.870
CUBEBUG 2 26 Feb 09:42:57 09:45:42 15° 298° (WNW) 09:48:25 437.445
AO-73 26 Feb 09:47:31 09:51:32 31° 291° (WNW) 09:55:28 145.935
Oscar 11 26 Feb 09:53:00 09:56:47 30° 291° (WNW) 10:00:32 .
TIGRISAT 26 Feb 09:53:13 09:57:30 43° 262° (W) 10:01:54 435.000
UNISAT 6 26 Feb 09:53:19 09:57:33 40° 263° (W) 10:01:54 437.425
AAUSAT CUBESAT 2 26 Feb 09:56:44 09:58:00 11° 298° (WNW) 09:59:17 437.432
LO-87 26 Feb 10:08:04 10:10:19 16° 93° (E) 10:12:35 145.935 - 145.965
AIST 2D 26 Feb 10:13:57 10:17:22 45° 73° (ENE) 10:20:48 435.315
UWE-3 26 Feb 10:19:51 10:20:40 10° 301° (WNW) 10:21:28 435.000/436.395/437.385
ESTCUBE 1 26 Feb 10:25:56 10:28:31 15° 91° (E) 10:31:06 437.505/2401.250
DUCHIFAT 1 26 Feb 10:27:39 10:31:30 36° 70° (ENE) 10:35:24 145.980
ZACube-1 26 Feb 10:38:26 10:39:17 10° 301° (WNW) 10:40:07 437.345
FO-29 26 Feb 10:38:40 10:45:34 50° 263° (W) 10:53:06 435.910
EO-79 26 Feb 10:39:23 10:43:32 59° 74° (ENE) 10:47:44 145.935-145.965
YUBILEINY 26 Feb 10:49:17 10:58:04 69° 281° (W) 11:06:52 435.215
AO-85 26 Feb 10:53:09 10:53:59 11° 35° (NE) 10:54:49 145.980
ISS 26 Feb 10:55:21 10:57:43 18° 2° (N) 11:00:03 437.550
NANOSAT C BR1 26 Feb 10:55:37 10:59:49 83° 76° (ENE) 11:04:05 145.865
POLYITAN 1 26 Feb 10:57:10 11:01:24 86° 256° (WSW) 11:05:42 437.675
QB50P2 26 Feb 11:00:13 11:04:26 74° 258° (WSW) 11:08:43 145.880/145.840
Tancredo 1 26 Feb 11:18:34 11:20:56 18° 7° (N) 11:23:18 437.200
BUGSAT 1 26 Feb 11:20:08 11:24:02 47° 72° (ENE) 11:28:01 437.445
LO-87 26 Feb 11:40:38 11:43:53 32° 289° (WNW) 11:47:08 145.935 - 145.965
AIST 2D 26 Feb 11:49:45 11:50:52 11° 270° (W) 11:51:58 435.315
Oscar 19 26 Feb 11:56:19 12:01:03 38° 68° (ENE) 12:05:46 437.125/150
ESTCUBE 1 26 Feb 12:01:16 12:05:39 54° 287° (WNW) 12:10:00 437.505/2401.250
DUCHIFAT 1 26 Feb 12:04:13 12:07:18 20° 267° (W) 12:10:24 145.980
50 SAT 26 Feb 12:04:20 12:07:32 34° 98° (E) 12:10:43 437.505
DX 1 26 Feb 12:09:42 12:13:24 27° 96° (E) 12:17:05 434.975-435.025
EO-79 26 Feb 12:17:55 12:19:41 12° 270° (W) 12:21:28 145.935-145.965
UKube-1 26 Feb 12:19:35 12:23:08 24° 95° (E) 12:26:39 .
SPROUT 26 Feb 12:20:54 12:25:12 69° 101° (E) 12:29:30 437.525
VELOX 1 26 Feb 12:21:28 12:25:55 83° 103° (ESE) 12:30:20 145.980
AO-85 26 Feb 12:31:12 12:35:07 72° 56° (NE) 12:39:04 145.980
ISS 26 Feb 12:31:53 12:34:54 31° 22° (NNE) 12:37:53 437.550
ITAMSAT 1 26 Feb 12:37:14 12:37:56 10° 55° (NE) 12:38:39 435.822/435.867
AO-7 26 Feb 12:48:48 12:55:02 24° 51° (NE) 13:01:15 .
Gurwin Techsat 1B 26 Feb 12:50:01 12:55:17 66° 73° (ENE) 13:00:34 435.225
YUBILEINY 26 Feb 12:52:11 12:56:45 15° 304° (NW) 13:01:19 435.215
Tancredo 1 26 Feb 12:54:40 12:57:48 44° 27° (NNE) 13:00:54 437.200
BUGSAT 1 26 Feb 12:57:28 12:59:41 14° 269° (W) 13:01:56 437.445
BEESAT 3 26 Feb 12:59:01 13:00:59 13° 38° (NE) 13:02:56 437.485
Oscar 19 26 Feb 13:36:05 13:40:25 27° 265° (W) 13:44:47 437.125/150
50 SAT 26 Feb 13:38:23 13:40:22 15° 294° (WNW) 13:42:21 437.505
BEESAT 2 26 Feb 13:39:42 13:41:58 14° 39° (NE) 13:44:14 435.950
DX 1 26 Feb 13:45:47 13:49:33 29° 292° (WNW) 13:53:18 434.975-435.025
UKube-1 26 Feb 13:55:21 13:59:09 31° 292° (WNW) 14:02:57 .
SPROUT 26 Feb 13:58:44 14:00:33 12° 299° (WNW) 14:02:22 437.525
VELOX 1 26 Feb 14:00:28 14:01:42 11° 300° (WNW) 14:02:56 145.980
ISS 26 Feb 14:08:17 14:11:26 44° 220° (SW) 14:14:34 437.550
ITAMSAT 1 26 Feb 14:11:16 14:16:26 70° 73° (ENE) 14:21:40 435.822/435.867
ITUPSAT 1 26 Feb 14:26:37 14:31:07 38° 98° (E) 14:35:34 437.325
PCSat 26 Feb 14:27:09 14:29:47 14° 103° (ESE) 14:32:25 145.827
Tancredo 1 26 Feb 14:31:13 14:33:57 25° 224° (SW) 14:36:38 437.200
BEESAT 26 Feb 14:32:17 14:36:53 45° 99° (E) 14:41:26 436.000
Gurwin Techsat 1B 26 Feb 14:32:27 14:35:41 16° 270° (W) 14:38:58 435.225
BEESAT 3 26 Feb 14:35:09 14:39:11 89° 38° (NE) 14:43:11 437.485
AO-7 26 Feb 14:38:25 14:46:48 88° 251° (WSW) 14:55:13 .
MOZHAYETS 4 26 Feb 14:42:36 14:46:09 22° 93° (E) 14:49:39
BEESAT 2 26 Feb 15:16:13 15:20:17 82° 240° (WSW) 15:24:19 435.950
NO-84 26 Feb 15:24:30 15:25:51 12° 123° (ESE) 15:27:15 435.350 FM
CUBESAT XI-V 26 Feb 15:45:57 15:48:47 16° 91° (E) 15:51:35 437.345
ITAMSAT 1 26 Feb 15:53:30 15:56:25 15° 270° (W) 15:59:20 435.822/435.867
LilacSat-2 26 Feb 16:02:24 16:03:20 11° 62° (ENE) 16:04:16 437.200
ITUPSAT 1 26 Feb 16:04:52 16:08:44 25° 295° (WNW) 16:12:35 437.325
PCSat 26 Feb 16:06:59 16:12:24 84° 300° (WNW) 16:17:53 145.827
BEESAT 26 Feb 16:10:44 16:14:21 22° 296° (WNW) 16:17:57 436.000
MOZHAYETS 4 26 Feb 16:19:09 16:23:26 39° 290° (WNW) 16:27:41
RS-15 26 Feb 16:25:12 16:36:24 50° 110° (ESE) 16:48:00 29.354- 29.394
AO-7 26 Feb 16:35:17 16:40:38 18° 270° (W) 16:46:02 .
KKS-1 26 Feb 16:39:51 16:44:22 90° 102° (ESE) 16:48:51 437.445
KAITUO 1B 26 Feb 16:49:07 16:52:23 27° 70° (ENE) 16:55:40 145.475/437.950
DOVE 4 26 Feb 16:55:11 16:59:07 45° 72° (ENE) 17:03:08 437.250
XW-2F 26 Feb 16:55:49 16:59:24 39° 72° (ENE) 17:03:01 145.980 - 146.000
NO-84 26 Feb 16:59:44 17:02:57 66° 323° (NW) 17:06:30 435.350 FM
XW-2D 26 Feb 17:01:10 17:04:53 48° 73° (ENE) 17:08:38 145.860 - 145.880
XW-2B 26 Feb 17:06:12 17:09:58 54° 74° (ENE) 17:13:46 145.730 - 145.750
CUTE-I 26 Feb 17:08:18 17:13:32 60° 72° (ENE) 17:18:49 437.470
M-CUBED/EXP-1 PRIME 26 Feb 17:09:41 17:13:11 33° 104° (ESE) 17:16:55 437.505
STARS 26 Feb 17:10:03 17:14:31 85° 105° (ESE) 17:18:57 437.465
XW-2C 26 Feb 17:14:50 17:18:40 70° 75° (ENE) 17:22:32 145.795 - 145.815
NUDT-PHONESAT 26 Feb 17:21:46 17:25:30 69° 75° (ENE) 17:29:17 437.300
CUBESAT XI-V 26 Feb 17:21:59 17:26:28 53° 287° (WNW) 17:30:55 437.345
LilacSat-2 26 Feb 17:33:12 17:37:04 66° 260° (W) 17:40:57 437.200
HO-68 26 Feb 17:40:07 17:46:29 36° 62° (ENE) 17:52:51 435.675
SEEDS 26 Feb 17:51:12 17:53:33 15° 64° (ENE) 17:55:56 437.485
PCSat 26 Feb 17:53:10 17:56:39 17° 321° (NW) 18:00:09 145.827
XW-2A 26 Feb 18:12:28 18:15:45 49° 75° (ENE) 18:19:06 145.665 - 145.685
KKS-1 26 Feb 18:19:21 18:20:12 10° 301° (WNW) 18:21:03 437.445
STRAND 1 26 Feb 18:21:45 18:25:16 18° 91° (E) 18:28:46 437.568
KAITUO 1B 26 Feb 18:23:27 18:26:24 21° 266° (W) 18:29:22 145.475/437.950
CUTE 1.7 + AOD 2 26 Feb 18:30:06 18:34:18 56° 74° (ENE) 18:38:29 437.475
XW-2F 26 Feb 18:31:25 18:33:43 15° 268° (W) 18:36:02 145.980 - 146.000
DOVE 4 26 Feb 18:34:45 18:37:07 15° 269° (W) 18:39:32 437.250
RS-15 26 Feb 18:37:00 18:48:49 58° 314° (NW) 19:01:02 29.354- 29.394
XW-2D 26 Feb 18:37:39 18:39:22 13° 270° (W) 18:41:05 145.860 - 145.880
NO-84 26 Feb 18:38:51 18:41:15 17° 344° (NNW) 18:43:48 435.350 FM
XW-2B 26 Feb 18:43:15 18:44:30 11° 270° (W) 18:45:44 145.730 - 145.750
M-CUBED/EXP-1 PRIME 26 Feb 18:44:36 18:47:30 21° 297° (WNW) 18:50:34 437.505
STARS 26 Feb 18:49:02 18:50:10 11° 301° (WNW) 18:51:19 437.465
CUTE-I 26 Feb 18:50:23 18:53:59 18° 269° (W) 18:57:37 437.470
CUBEBUG 2 26 Feb 19:03:23 19:07:45 58° 73° (ENE) 19:12:18 437.445
YUBILEINY 26 Feb 19:04:24 19:08:12 13° 54° (NE) 19:12:00 435.215
AO-73 26 Feb 19:07:43 19:11:17 24° 66° (ENE) 19:14:54 145.935
AAUSAT CUBESAT 2 26 Feb 19:09:35 19:13:35 49° 73° (ENE) 19:17:36 437.432
Oscar 11 26 Feb 19:12:47 19:16:11 23° 67° (ENE) 19:19:35 .
SEEDS 26 Feb 19:24:40 19:28:48 54° 260° (W) 19:32:58 437.485
HO-68 26 Feb 19:27:08 19:34:00 48° 260° (W) 19:40:54 435.675
UWE-3 26 Feb 19:37:31 19:42:00 84° 76° (ENE) 19:46:38 435.000/436.395/437.385
ZACube-1 26 Feb 19:55:07 19:59:36 78° 74° (ENE) 20:04:10 437.345
STRAND 1 26 Feb 19:59:45 20:04:49 57° 288° (WNW) 20:09:50 437.568
CUTE 1.7 + AOD 2 26 Feb 20:08:22 20:10:28 13° 270° (W) 20:12:34 437.475
NO-84 26 Feb 20:18:10 20:20:11 14° 6° (N) 20:22:16 435.350 FM
DELFI C3 26 Feb 20:28:52 20:32:38 44° 72° (ENE) 20:36:24 145.870
CUBEBUG 2 26 Feb 20:42:22 20:44:47 14° 271° (W) 20:47:15 437.445
AO-73 26 Feb 20:43:11 20:47:18 36° 264° (W) 20:51:31 145.935
AAUSAT CUBESAT 2 26 Feb 20:47:04 20:49:20 14° 269° (W) 20:51:35 437.432
Oscar 11 26 Feb 20:48:07 20:52:06 35° 263° (W) 20:56:07 .
RS-15 26 Feb 20:54:45 21:04:51 28° 346° (NNW) 21:15:02 29.354- 29.394
YUBILEINY 26 Feb 20:58:23 21:07:05 64° 78° (ENE) 21:15:40 435.215
SO-50 26 Feb 21:03:52 21:07:51 28° 114° (ESE) 21:11:48 436.795
PRISM 26 Feb 21:04:53 21:08:36 33° 98° (E) 21:12:18 437.425
ESTCUBE 1 26 Feb 21:26:26 21:29:18 17° 63° (ENE) 21:32:09 437.505/2401.250
ZACube-1 26 Feb 21:35:35 21:36:27 10° 273° (W) 21:37:18 437.345
TIGRISAT 26 Feb 21:43:36 21:48:00 38° 97° (E) 21:52:18 435.000
UNISAT 6 26 Feb 21:43:46 21:48:13 41° 98° (E) 21:52:35 437.425
O/OREOS (USA 219) 26 Feb 21:44:33 21:48:31 32° 105° (ESE) 21:52:32 437.305
FO-29 26 Feb 21:48:12 21:54:39 30° 91° (E) 22:00:33 435.910
NO-84 26 Feb 21:55:29 21:58:54 27° 26° (NNE) 22:02:32 435.350 FM
DELFI C3 26 Feb 22:05:29 22:07:39 14° 269° (W) 22:09:50 145.870
LO-87 26 Feb 22:17:02 22:20:33 75° 258° (WSW) 22:24:06 145.935 - 145.965
50 SAT 26 Feb 22:39:58 22:42:15 17° 67° (ENE) 22:44:34 437.505
PRISM 26 Feb 22:40:36 22:43:41 21° 294° (WNW) 22:46:46 437.425
NANOSAT C BR1 26 Feb 22:40:48 22:42:41 13° 90° (E) 22:44:34 145.865
POLYITAN 1 26 Feb 22:42:28 22:44:53 15° 91° (E) 22:47:18 437.675
SO-50 26 Feb 22:43:49 22:48:10 38° 311° (NW) 22:52:30 436.795
QB50P2 26 Feb 22:45:10 22:48:00 17° 92° (E) 22:50:48 145.880/145.840
YUBILEINY 26 Feb 22:56:09 23:03:12 29° 278° (W) 23:10:13 435.215
ESTCUBE 1 26 Feb 23:01:16 23:05:41 53° 260° (W) 23:10:06 437.505/2401.250
DX 1 26 Feb 23:06:05 23:09:41 26° 67° (ENE) 23:13:19 434.975-435.025
AIST 2D 26 Feb 23:11:19 23:14:48 50° 99° (E) 23:18:15 435.315
PCSat 26 Feb 23:11:35 23:15:20 18° 40° (NE) 23:19:04 145.827
RS-15 26 Feb 23:12:05 23:22:39 31° 21° (NNE) 23:33:01 29.354- 29.394
SPROUT 26 Feb 23:14:47 23:18:56 57° 74° (ENE) 23:23:09 437.525
UKube-1 26 Feb 23:14:58 23:18:24 24° 66° (ENE) 23:21:51 .
VELOX 1 26 Feb 23:19:13 23:23:36 81° 75° (ENE) 23:28:00 145.980
TIGRISAT 26 Feb 23:20:41 23:24:27 24° 294° (WNW) 23:28:11 435.000
UNISAT 6 26 Feb 23:21:00 23:24:39 23° 295° (WNW) 23:28:16 437.425
O/OREOS (USA 219) 26 Feb 23:24:08 23:27:56 27° 303° (WNW) 23:31:46 437.305
FO-29 26 Feb 23:32:36 23:40:04 57° 291° (WNW) 23:46:49 435.910
NO-84 26 Feb 23:32:49 23:36:53 66° 223° (SW) 23:41:12 435.350 FM
DUCHIFAT 1 26 Feb 23:45:47 23:50:02 60° 101° (E) 23:54:13 145.980
EO-79 26 Feb 23:58:35 00:02:54 82° 284° (WNW) 00:07:10 145.935-145.965
Oscar 19 27 Feb 00:09:00 00:10:45 12° 88° (E) 00:12:31 437.125/150
50 SAT 27 Feb 00:12:03 00:15:09 30° 263° (W) 00:18:16 437.505
NANOSAT C BR1 27 Feb 00:14:33 00:18:47 59° 286° (WNW) 00:22:58 145.865
POLYITAN 1 27 Feb 00:16:47 00:20:58 51° 288° (WNW) 00:25:07 437.675
QB50P2 27 Feb 00:19:54 00:24:00 44° 288° (WNW) 00:28:04 145.880/145.840
BUGSAT 1 27 Feb 00:35:47 00:40:04 75° 103° (ESE) 00:44:18 437.445
DX 1 27 Feb 00:42:01 00:45:47 29° 264° (W) 00:49:34 434.975-435.025
AIST 2D 27 Feb 00:46:28 00:47:35 11° 296° (WNW) 00:48:42 435.315
UKube-1 27 Feb 00:50:26 00:54:16 32° 263° (W) 00:58:09 .
SPROUT 27 Feb 00:53:13 00:55:13 13° 270° (W) 00:57:14 437.525
PCSat 27 Feb 00:54:01 00:59:29 88° 241° (WSW) 01:04:54 145.827
Gurwin Techsat 1B 27 Feb 01:05:55 01:10:12 24° 94° (E) 01:14:27 435.225
FO-29 27 Feb 01:20:17 01:23:21 13° 312° (NW) 01:26:20 435.910
DUCHIFAT 1 27 Feb 01:23:00 01:25:12 14° 298° (WNW) 01:27:24 145.980
RS-15 27 Feb 01:25:37 01:38:01 69° 51° (NE) 01:49:51 29.354- 29.394
ITUPSAT 1 27 Feb 01:33:56 01:38:34 50° 71° (ENE) 01:43:13 437.325
BEESAT 27 Feb 01:39:14 01:43:55 57° 72° (ENE) 01:48:38 436.000
MOZHAYETS 4 27 Feb 01:45:15 01:48:56 24° 66° (ENE) 01:52:39
Oscar 19 27 Feb 01:45:34 01:50:43 84° 285° (WNW) 01:55:51 437.125/150
KKS-1 27 Feb 02:06:15 02:07:00 10° 59° (ENE) 02:07:44 437.445
BUGSAT 1 27 Feb 02:13:25 02:14:48 11° 299° (WNW) 02:16:12 437.445
ITAMSAT 1 27 Feb 02:23:54 02:28:00 23° 93° (E) 02:32:05 435.822/435.867
AO-7 27 Feb 02:39:45 02:46:45 29° 95° (E) 02:53:42 .
PCSat 27 Feb 02:40:02 02:42:01 12° 258° (WSW) 02:44:00 145.827
Gurwin Techsat 1B 27 Feb 02:45:16 02:50:20 45° 290° (WNW) 02:55:22 435.225
AO-85 27 Feb 02:47:14 02:50:26 19° 113° (ESE) 02:53:31 145.980
CUBESAT XI-V 27 Feb 02:50:07 02:53:19 19° 64° (ENE) 02:56:31 437.345
ITUPSAT 1 27 Feb 03:13:19 03:16:39 19° 268° (W) 03:20:02 437.325
BEESAT 27 Feb 03:19:07 03:22:03 16° 269° (W) 03:25:00 436.000
MOZHAYETS 4 27 Feb 03:21:35 03:25:53 37° 263° (W) 03:30:13
Oscar 19 27 Feb 03:27:21 03:29:13 12° 303° (WNW) 03:31:05 437.125/150
KKS-1 27 Feb 03:38:25 03:42:50 89° 257° (WSW) 03:47:18 437.445
RS-15 27 Feb 03:38:58 03:49:43 39° 254° (WSW) 04:00:05 29.354- 29.394
M-CUBED/EXP-1 PRIME 27 Feb 03:57:12 04:00:18 42° 67° (ENE) 04:03:26 437.505
ITAMSAT 1 27 Feb 04:02:41 04:07:41 47° 290° (WNW) 04:12:39 435.822/435.867
STARS 27 Feb 04:07:08 04:11:29 84° 77° (ENE) 04:15:54 437.465
CUBESAT XI-V 27 Feb 04:25:48 04:30:19 49° 261° (W) 04:34:50 437.345
AO-85 27 Feb 04:26:12 04:30:34 48° 308° (NW) 04:34:40 145.980
BEESAT 3 27 Feb 04:28:39 04:29:44 11° 108° (ESE) 04:30:49 437.485
AO-7 27 Feb 04:31:50 04:40:02 65° 294° (WNW) 04:48:11 .
DOVE 4 27 Feb 04:53:36 04:55:58 13° 90° (E) 04:58:22 437.250
LilacSat-2 27 Feb 05:07:19 05:08:58 12° 90° (E) 05:10:36 437.200
BEESAT 2 27 Feb 05:10:22 05:12:15 13° 109° (ESE) 05:14:08 435.950
CUTE-I 27 Feb 05:25:06 05:29:15 22° 93° (E) 05:33:22 437.470
SO-50 27 Feb 05:33:48 05:37:55 33° 47° (NE) 05:41:59 436.795
STRAND 1 27 Feb 05:38:09 05:42:33 29° 66° (ENE) 05:46:58 437.568
